This is the latest recevied weather packets stored in our database for station/object K6CED. If no packets are shown the sender has not sent any weather packets the latest 10 day(s).
| Time | Temp. | Humidity | Pressure | Rain* | Wind** | Luminosity | Snow |
|---|---|---|---|---|---|---|---|
| 1787785729 | 36.67° C | 35% | 1013.2 hPa | 0 mm | - | 457 W/m² | - |
| 1787785424 | 36.67° C | 36% | 1013.5 hPa | 0 mm | - | 488 W/m² | - |
| 1787785122 | 36.67° C | 35% | 1013.6 hPa | 0 mm | - | 510 W/m² | - |
| 1787784818 | 36.67° C | 35% | 1013.6 hPa | 0 mm | - | 525 W/m² | - |
| 1787784516 | 36.67° C | 36% | 1013.7 hPa | 0 mm | - | 539 W/m² | - |
| 1787784211 | 36.11° C | 36% | 1013.6 hPa | 0 mm | - | 552 W/m² | - |
| 1787783907 | 37.78° C | 35% | 1013.7 hPa | 0 mm | - | 573 W/m² | - |
| 1787783603 | 36.67° C | 36% | 1013.8 hPa | 0 mm | - | 592 W/m² | - |
| 1787783302 | 36.67° C | 36% | 1013.7 hPa | 0 mm | - | 614 W/m² | - |
| 1787782998 | 37.22° C | 36% | 1013.7 hPa | 0 mm | - | 655 W/m² | - |
| 1787782697 | 37.78° C | 35% | 1013.7 hPa | 0 mm | - | 666 W/m² | - |
| 1787782393 | 37.78° C | 35% | 1013.9 hPa | 0 mm | - | 690 W/m² | - |
| 1787782088 | 37.78° C | 34% | 1014.1 hPa | 0 mm | - | 718 W/m² | - |
| 1787781784 | 38.33° C | 34% | 1013.7 hPa | 0 mm | - | 765 W/m² | - |
| 1787781481 | 38.89° C | 34% | 1013.7 hPa | 0 mm | - | 690 W/m² | - |
| 1787781181 | 38.89° C | 33% | 1013.9 hPa | 0 mm | - | 834 W/m² | - |
| 1787780879 | 38.33° C | 33% | 1013.9 hPa | 0 mm | - | 279 W/m² | - |
| 1787780574 | 40° C | 32% | 1013.7 hPa | 0 mm | - | 302 W/m² | - |
| 1787780270 | 40° C | 32% | 1013.9 hPa | 0 mm | - | 822 W/m² | - |
| 1787779965 | 40° C | 31% | 1013.9 hPa | 0 mm | - | 782 W/m² | - |
| 1787779660 | 40.56° C | 31% | 1013.8 hPa | 0 mm | - | 752 W/m² | - |
| 1787779358 | 40.56° C | 30% | 1014.1 hPa | 0 mm | - | 739 W/m² | - |
| 1787779054 | 41.11° C | 30% | 1013.9 hPa | 0 mm | - | 735 W/m² | - |
| 1787778749 | 40° C | 31% | 1013.9 hPa | 0 mm | - | 746 W/m² | - |
| 1787778446 | 40.56° C | 31% | 1014.1 hPa | 0 mm | - | 752 W/m² | - |
* Rain latest hour (hover to see other rain measurements)
** Current wind speed in m/s (hover to see current wind gust speed)